GW0366 Weather Reports


time (UTC)temp
C
wind
direction
speed
KPH
gust
KPH
rain 1hr
cm
rain 24hr
cm
rain mn
cm
humidity
%
barometer
mb
20260507175048 25 214 6.4 8.0 0.00 0.00 0.00 72 1009.5
20260507174545 25 207 4.8 4.8 0.00 0.00 0.00 72 1009.4
20260507174043 25 201 3.2 4.8 0.00 0.00 0.00 74 1009.6
20260507173539 24 216 1.6 3.2 0.00 0.00 0.00 74 1009.4
20260507173037 24 200 8.0 11.3 0.00 0.00 0.00 75 1009.7
20260507172532 24 230 3.2 3.2 0.00 0.00 0.00 76 1009.7
20260507172030 24 202 4.8 4.8 0.00 0.00 0.00 77 1009.6
20260507171525 25 220 4.8 4.8 0.00 0.00 0.00 76 1009.5
20260507171023 25 216 4.8 4.8 0.00 0.00 0.00 77 1009.7
20260507170519 25 219 4.8 4.8 0.00 0.00 0.00 76 1010.0
20260507170016 25 193 4.8 8.0 0.00 0.00 0.00 76 1009.9
20260507165512 25 221 6.4 8.0 0.00 0.00 0.00 74 1010.0
20260507165009 25 193 0.0 0.0 0.00 0.00 0.00 74 1010.2
20260507164505 25 219 6.4 9.7 0.00 0.00 0.00 73 1010.5
20260507164002 25 197 0.0 1.6 0.00 0.00 0.00 71 1010.5
20260507163459 25 216 6.4 11.3 0.00 0.00 0.00 69 1010.3
20260507162956 25 203 8.0 9.7 0.00 0.00 0.00 66 1010.6
20260507162451 25 202 4.8 8.0 0.00 0.00 0.00 65 1011.1
20260507161948 25 210 0.0 0.0 0.00 0.00 0.00 64 1010.8
20260507161445 25 208 4.8 8.0 0.00 0.00 0.00 65 1010.9
20260507160942 25 218 4.8 4.8 0.00 0.00 0.00 66 1011.1
20260507160438 25 197 1.6 4.8 0.00 0.00 0.00 69 1011.4
20260507155933 25 195 0.0 1.6 0.00 0.00 0.00 70 1011.4
20260507155430 25 198 1.6 1.6 0.00 0.00 0.00 71 1011.4
20260507154927 25 199 1.6 3.2 0.00 0.00 0.00 72 1011.4
20260507154423 25 198 0.0 0.0 0.00 0.00 0.00 75 1011.2
20260507153921 24 212 1.6 1.6 0.00 0.00 0.00 76 1011.5
20260507153417 24 211 0.0 0.0 0.00 0.00 0.00 76 1011.7
20260507152914 24 217 4.8 8.0 0.00 0.00 0.00 77 1011.2
20260507152410 24 205 4.8 8.0 0.00 0.00 0.00 77 1010.7
20260507151906 23 210 4.8 8.0 0.00 0.00 0.00 76 1010.5
20260507151403 23 210 4.8 4.8 0.00 0.00 0.00 77 1010.8
20260507150900 23 202 4.8 4.8 0.00 0.00 0.00 79 1010.9
20260507150356 22 211 6.4 8.0 0.00 0.00 0.00 80 1010.7
20260507145853 22 187 0.0 1.6 0.00 0.00 0.00 80 1010.6
20260507145349 22 209 0.0 0.0 0.00 0.00 0.00 80 1010.6
20260507144846 22 205 3.2 3.2 0.00 0.00 0.00 79 1010.5
20260507144343 22 209 0.0 0.0 0.00 0.00 0.00 78 1010.6
20260507143840 22 200 3.2 3.2 0.00 0.00 0.00 78 1010.8
20260507143337 22 186 0.0 0.0 0.00 0.00 0.00 79 1010.7
20260507142833 22 186 0.0 0.0 0.00 0.00 0.00 79 1010.9
20260507142330 22 190 3.2 3.2 0.00 0.00 0.00 80 1010.9
20260507141826 22 205 3.2 3.2 0.00 0.00 0.00 82 1011.8
20260507141323 22 201 6.4 8.0 0.00 0.00 0.00 83 1011.7
20260507140819 22 214 4.8 4.8 0.00 0.00 0.00 84 1011.5
20260507140316 22 205 6.4 8.0 0.00 0.00 0.00 84 1011.7
20260507135814 22 214 4.8 4.8 0.00 0.00 0.00 85 1011.7
20260507135311 22 201 3.2 3.2 0.00 0.00 0.00 85 1011.8
20260507134808 22 204 3.2 4.8 0.00 0.00 0.00 85 1011.5
20260507134304 22 213 0.0 0.0 0.00 0.00 0.00 85 1010.7
20260507133800 21 210 4.8 8.0 0.00 0.00 0.00 86 1010.6
20260507133256 21 210 0.0 0.0 0.00 0.00 0.00 86 1010.6
20260507132754 21 211 0.0 0.0 0.00 0.00 0.00 86 1010.4
20260507132251 21 205 0.0 0.0 0.00 0.00 0.00 85 1010.4
20260507131748 21 214 0.0 0.0 0.00 0.00 0.00 85 1010.0
20260507131244 21 216 0.0 0.0 0.00 0.00 0.00 86 1010.2
20260507130741 21 216 1.6 3.2 0.00 0.00 0.00 87 1010.3
20260507130239 21 217 0.0 0.0 0.00 0.00 0.00 88 1010.2
20260507125738 21 217 0.0 0.0 0.00 0.00 0.00 89 1010.2
20260507125235 21 217 0.0 0.0 0.00 0.00 0.00 89 1010.3
20260507124731 21 217 0.0 0.0 0.00 0.00 0.00 89 1010.6
20260507124228 21 217 0.0 0.0 0.00 0.00 0.00 90 1011.0
20260507123727 21 217 0.0 0.0 0.00 0.00 0.00 90 1011.1
20260507123224 21 217 0.0 0.0 0.00 0.00 0.00 90 1011.1
20260507122719 21 211 0.0 0.0 0.00 0.00 0.00 90 1010.6
20260507122215 21 210 0.0 0.0 0.00 0.00 0.00 90 1011.2
20260507121711 21 209 0.0 0.0 0.00 0.00 0.00 90 1011.6
20260507121207 21 209 0.0 0.0 0.00 0.00 0.00 90 1011.5
20260507120703 21 205 0.0 0.0 0.00 0.00 0.00 91 1011.9
20260507120200 21 211 0.0 0.0 0.00 0.00 0.00 91 1011.7
20260507115656 21 216 0.0 0.0 0.00 0.00 0.00 90 1011.9
20260507115152 22 216 0.0 0.0 0.00 0.00 0.00 90 1011.8
20260507114648 22 216 0.0 0.0 0.00 0.00 0.00 90 1012.0
20260507114146 22 216 0.0 0.0 0.00 0.00 0.00 90 1012.1
20260507113643 22 216 0.0 0.0 0.00 0.00 0.00 91 1012.1
20260507113140 22 216 0.0 0.0 0.00 0.00 0.00 90 1012.5
20260507112638 22 217 0.0 0.0 0.00 0.00 0.00 90 1012.3
20260507112134 22 210 0.0 0.0 0.00 0.00 0.00 90 1012.0
20260507111631 22 210 0.0 0.0 0.00 0.00 0.00 90 1012.3
20260507111128 22 210 0.0 0.0 0.00 0.00 0.00 90 1012.5
20260507110624 22 210 0.0 0.0 0.00 0.00 0.00 89 1012.7
20260507110121 22 204 0.0 0.0 0.00 0.00 0.00 90 1012.9
20260507105618 22 209 0.0 0.0 0.00 0.00 0.00 90 1012.7
20260507105113 22 210 0.0 0.0 0.00 0.00 0.00 90 1012.5
20260507104611 22 210 0.0 0.0 0.00 0.00 0.00 90 1012.5
20260507104107 22 209 0.0 0.0 0.00 0.00 0.00 90 1012.9
20260507103604 22 209 0.0 0.0 0.00 0.00 0.00 90 1012.6
20260507103100 22 209 0.0 0.0 0.00 0.00 0.00 90 1012.7
20260507102557 22 210 0.0 0.0 0.00 0.00 0.00 90 1012.8
20260507102053 22 211 0.0 0.0 0.00 0.00 0.00 90 1012.7
20260507101548 22 209 0.0 0.0 0.00 0.00 0.00 89 1012.7
20260507101045 22 213 3.2 3.2 0.00 0.00 0.00 88 1013.1
20260507100543 22 209 0.0 0.0 0.00 0.00 0.00 88 1013.1
20260507100041 22 218 0.0 0.0 0.00 0.00 0.00 87 1013.3
20260507095538 22 216 0.0 0.0 0.00 0.00 0.00 87 1013.3
20260507095035 22 216 0.0 0.0 0.00 0.00 0.00 87 1012.9
20260507094531 22 216 0.0 0.0 0.00 0.00 0.00 87 1012.6
20260507094028 23 213 3.2 3.2 0.00 0.00 0.00 86 1012.7
20260507093526 23 209 4.8 4.8 0.00 0.00 0.00 86 1012.6
20260507093024 23 206 4.8 4.8 0.00 0.00 0.00 85 1012.6
20260507092520 22 209 4.8 4.8 0.00 0.00 0.00 86 1012.4
20260507092017 22 210 4.8 4.8 0.00 0.00 0.00 86 1012.4
20260507091514 22 217 1.6 3.2 0.00 0.00 0.00 86 1012.5
20260507091010 22 218 0.0 0.0 0.00 0.00 0.00 86 1012.5
20260507090506 22 194 0.0 0.0 0.00 0.00 0.00 86 1012.3
20260507090003 22 196 0.0 0.0 0.00 0.00 0.00 87 1012.3
20260507085500 22 201 0.0 0.0 0.00 0.00 0.00 87 1012.1
20260507084956 22 200 0.0 0.0 0.00 0.00 0.00 87 1012.3
20260507084453 22 192 0.0 0.0 0.00 0.00 0.00 87 1012.3
20260507083950 22 185 0.0 0.0 0.00 0.00 0.00 87 1012.1
20260507083446 22 201 0.0 0.0 0.00 0.00 0.00 87 1011.9
20260507082943 22 195 0.0 0.0 0.00 0.00 0.00 88 1011.9
20260507082439 22 211 0.0 0.0 0.00 0.00 0.00 88 1011.6
20260507081935 22 185 0.0 0.0 0.00 0.00 0.00 88 1011.9
20260507081432 22 196 3.2 4.8 0.00 0.00 0.00 89 1011.4
20260507080929 22 214 1.6 4.8 0.00 0.00 0.00 89 1011.5
20260507080425 22 205 0.0 0.0 0.00 0.00 0.00 90 1011.8
20260507075920 22 196 0.0 0.0 0.00 0.00 0.00 90 1011.5
20260507075417 22 196 0.0 0.0 0.00 0.00 0.00 90 1011.5
20260507074914 22 220 3.2 4.8 0.00 0.00 0.00 91 1011.8
20260507074410 22 210 0.0 0.0 0.00 0.00 0.00 91 1011.1
20260507073908 22 198 3.2 3.2 0.00 0.00 0.00 91 1011.3
20260507073404 22 198 0.0 0.0 0.00 0.00 0.00 91 1011.1
20260507072901 22 196 0.0 0.0 0.00 0.00 0.00 91 1010.9
20260507072359 22 203 0.0 0.0 0.00 0.00 0.00 91 1010.7
20260507071856 22 214 0.0 0.0 0.00 0.00 0.00 90 1010.9
20260507071353 22 199 0.0 0.0 0.00 0.00 0.00 90 1011.2
20260507070849 22 206 0.0 0.0 0.00 0.00 0.00 90 1011.6
20260507070347 22 210 0.0 0.0 0.00 0.00 0.00 90 1011.7
20260507065844 22 213 0.0 1.6 0.00 0.00 0.00 90 1011.8
20260507065340 22 195 3.2 3.2 0.00 0.00 0.00 90 1011.8
20260507064837 22 191 3.2 3.2 0.00 0.00 0.00 90 1011.9
20260507064336 22 206 0.0 0.0 0.00 0.00 0.00 90 1012.0
20260507063833 22 211 4.8 8.0 0.00 0.00 0.00 90 1012.1
20260507063330 22 211 4.8 8.0 0.00 0.00 0.00 90 1012.1
20260507062827 22 203 3.2 3.2 0.00 0.00 0.00 90 1012.2
20260507062324 22 201 0.0 0.0 0.00 0.00 0.00 90 1012.3
20260507061822 22 197 0.0 0.0 0.00 0.00 0.00 90 1012.4
20260507061319 23 208 0.0 0.0 0.00 0.00 0.00 89 1012.5
20260507060818 23 187 0.0 0.0 0.00 0.00 0.00 89 1012.7
20260507060314 23 171 0.0 0.0 0.00 0.00 0.00 89 1012.8
20260507055811 23 204 4.8 8.0 0.00 0.00 0.00 89 1012.8
20260507055306 23 212 4.8 4.8 0.00 0.00 0.00 89 1012.9
20260507054803 23 204 4.8 4.8 0.00 0.00 0.00 89 1013.0
20260507054259 23 211 0.0 0.0 0.00 0.00 0.00 89 1013.3
20260507053756 23 202 3.2 4.8 0.00 0.00 0.00 89 1013.3
20260507053254 23 204 1.6 3.2 0.00 0.00 0.00 88 1013.8
20260507052753 23 198 0.0 0.0 0.00 0.00 0.00 88 1013.5
20260507052249 23 209 1.6 3.2 0.00 0.00 0.00 88 1013.5
20260507051747 23 203 4.8 4.8 0.00 0.00 0.00 88 1013.1
20260507051243 23 209 4.8 4.8 0.00 0.00 0.00 88 1012.9
20260507050740 23 203 1.6 3.2 0.00 0.00 0.00 88 1013.3
20260507050237 23 220 0.0 3.2 0.00 0.00 0.00 88 1013.6
20260507045734 23 204 0.0 0.0 0.00 0.00 0.00 88 1013.6
20260507045230 23 218 1.6 4.8 0.00 0.00 0.00 89 1013.7
20260507044727 23 213 0.0 0.0 0.00 0.00 0.00 90 1013.6
20260507044224 23 210 0.0 0.0 0.00 0.00 0.00 90 1013.3
20260507043720 23 199 0.0 0.0 0.00 0.00 0.00 90 1013.3
20260507043217 23 188 1.6 3.2 0.00 0.00 0.00 90 1013.4
20260507042714 22 210 1.6 3.2 0.00 0.00 0.00 91 1013.5
20260507042208 22 218 0.0 0.0 0.00 0.00 0.00 91 1013.5
20260507041706 22 213 0.0 0.0 0.00 0.00 0.00 91 1013.3
20260507041202 22 213 0.0 0.0 0.00 0.00 0.00 91 1013.4
20260507040659 23 198 0.0 0.0 0.00 0.00 0.00 91 1013.4
20260507040155 23 195 0.0 0.0 0.00 0.00 0.00 90 1013.8
20260507035652 23 192 0.0 0.0 0.00 0.00 0.00 90 1013.6
20260507035148 23 218 3.2 3.2 0.00 0.00 0.00 90 1013.4
20260507034645 23 211 4.8 8.0 0.00 0.00 0.00 89 1013.2
20260507034142 23 205 3.2 8.0 0.00 0.00 0.00 89 1013.2
20260507033641 23 201 4.8 4.8 0.00 0.00 0.00 89 1013.3
20260507033137 23 213 0.0 0.0 0.00 0.00 0.00 89 1012.9
20260507032635 23 212 3.2 3.2 0.00 0.00 0.00 89 1013.1
20260507032130 23 205 3.2 3.2 0.00 0.00 0.00 88 1013.2
20260507031627 23 199 0.0 0.0 0.00 0.00 0.00 88 1013.2
20260507031124 23 196 0.0 3.2 0.00 0.00 0.00 89 1013.2
20260507030621 23 214 0.0 0.0 0.00 0.00 0.00 89 1012.9
20260507030119 23 213 1.6 1.6 0.00 0.00 0.00 89 1012.9
20260507025616 23 212 0.0 0.0 0.00 0.00 0.00 90 1013.1
20260507025113 23 213 1.6 3.2 0.00 0.00 0.00 90 1013.3
20260507024611 23 207 3.2 3.2 0.00 0.00 0.00 90 1013.5
20260507024108 23 205 1.6 1.6 0.00 0.00 0.00 90 1013.1
20260507023603 23 205 3.2 4.8 0.00 0.00 0.00 90 1013.0
20260507023101 23 197 3.2 3.2 0.00 0.00 0.00 90 1012.6
20260507022557 23 205 0.0 0.0 0.00 0.00 0.00 90 1012.8
20260507022053 23 206 1.6 3.2 0.00 0.00 0.00 90 1013.0
20260507021549 23 200 0.0 1.6 0.00 0.00 0.00 90 1012.9
20260507021045 22 213 3.2 4.8 0.00 0.00 0.00 90 1013.1
20260507020543 22 202 3.2 4.8 0.00 0.00 0.00 90 1013.6
20260507020039 22 196 1.6 3.2 0.00 0.00 0.00 90 1013.5
20260507015538 22 219 8.0 9.7 0.00 0.00 0.00 90 1013.4
20260507015035 22 208 3.2 3.2 0.00 0.00 0.00 90 1013.5
20260507014531 22 196 0.0 1.6 0.00 0.00 0.00 90 1013.7
20260507014027 22 213 3.2 4.8 0.00 0.00 0.00 90 1013.8
20260507013524 22 214 1.6 3.2 0.00 0.00 0.00 90 1013.7
20260507013021 22 202 0.0 0.0 0.00 0.00 0.00 90 1013.6
20260507012518 22 201 0.0 0.0 0.00 0.00 0.00 89 1013.5
20260507012015 22 198 0.0 0.0 0.00 0.00 0.00 89 1013.7
20260507011512 22 206 0.0 0.0 0.00 0.00 0.00 89 1013.7
20260507011008 22 201 0.0 0.0 0.00 0.00 0.00 89 1014.0
20260507010503 22 191 4.8 4.8 0.00 0.00 0.00 89 1013.9
20260507005959 23 214 0.0 0.0 0.00 0.00 0.00 89 1013.9
20260507005457 23 214 0.0 0.0 0.00 0.00 0.00 89 1013.8
20260507004953 23 213 0.0 0.0 0.00 0.00 0.00 88 1013.8
20260507004450 22 216 0.0 0.0 0.00 0.00 0.00 88 1013.5
20260507003948 22 213 0.0 0.0 0.00 0.00 0.00 89 1013.6
20260507003443 22 212 0.0 0.0 0.00 0.00 0.00 88 1014.0
20260507002938 22 212 0.0 0.0 0.00 0.00 0.00 88 1013.6
20260507002435 22 202 3.2 4.8 0.00 0.00 0.00 88 1013.8
20260507001932 22 192 0.0 0.0 0.00 0.00 0.00 88 1013.8
20260507001428 22 210 0.0 0.0 0.00 0.00 0.00 88 1013.6
20260507000926 22 210 0.0 0.0 0.00 0.00 0.00 88 1014.0
20260507000421 22 202 0.0 1.6 0.00 0.00 0.00 88 1013.8
20260506235917 23 211 1.6 3.2 0.00 0.00 0.00 88 1013.9
20260506235415 23 210 1.6 1.6 0.00 0.00 0.00 88 1013.9
20260506234910 23 202 0.0 0.0 0.00 0.00 0.00 87 1013.9
20260506234408 23 216 1.6 3.2 0.00 0.00 0.00 87 1014.0
20260506233906 23 214 1.6 1.6 0.00 0.00 0.00 86 1013.8
20260506233401 23 216 0.0 0.0 0.00 0.00 0.00 86 1013.8
20260506232858 23 214 3.2 3.2 0.00 0.00 0.00 85 1013.6
20260506232354 23 214 1.6 1.6 0.00 0.00 0.00 85 1013.8
20260506231850 23 199 4.8 4.8 0.00 0.00 0.00 84 1013.7
20260506231348 23 203 3.2 4.8 0.00 0.00 0.00 85 1013.7
20260506230845 23 213 3.2 3.2 0.00 0.00 0.00 84 1013.7
20260506230342 23 214 3.2 3.2 0.00 0.00 0.00 84 1013.7
20260506225838 23 211 1.6 1.6 0.00 0.00 0.00 83 1013.8
20260506225336 23 211 3.2 3.2 0.00 0.00 0.00 83 1013.8
20260506224833 23 214 3.2 3.2 0.00 0.00 0.00 82 1013.5
20260506224330 23 217 6.4 8.0 0.00 0.00 0.00 82 1013.7
20260506223826 23 215 3.2 3.2 0.00 0.00 0.00 81 1013.5
20260506223321 23 201 4.8 8.0 0.00 0.00 0.00 81 1013.2
20260506222819 24 200 1.6 4.8 0.00 0.00 0.00 80 1013.6
20260506222313 24 203 4.8 8.0 0.00 0.00 0.00 79 1013.6
20260506221807 24 228 3.2 4.8 0.00 0.00 0.00 78 1013.7
20260506221304 24 199 3.2 4.8 0.00 0.00 0.00 78 1013.6
20260506220801 24 210 4.8 4.8 0.00 0.00 0.00 76 1013.4
20260506220256 25 215 4.8 8.0 0.00 0.00 0.00 76 1013.4
20260506215753 25 210 3.2 3.2 0.00 0.00 0.00 77 1013.5
20260506215248 25 199 4.8 4.8 0.00 0.00 0.00 77 1013.7
20260506214745 25 210 3.2 3.2 0.00 0.00 0.00 76 1013.7
20260506214242 25 217 3.2 3.2 0.00 0.00 0.00 77 1013.5
20260506213741 25 210 6.4 8.0 0.00 0.00 0.00 76 1013.8
20260506213237 25 214 6.4 9.7 0.00 0.00 0.00 75 1014.0
20260506212735 25 200 3.2 3.2 0.00 0.00 0.00 77 1013.7
20260506212230 25 217 6.4 8.0 0.00 0.00 0.00 75 1013.9
20260506211725 25 211 4.8 8.0 0.00 0.00 0.00 76 1013.8
20260506211222 25 200 4.8 8.0 0.00 0.00 0.00 76 1013.9
20260506210719 25 201 6.4 9.7 0.00 0.00 0.00 75 1013.9
20260506210216 25 210 3.2 4.8 0.00 0.00 0.00 75 1014.0
20260506205713 26 209 6.4 9.7 0.00 0.00 0.00 74 1014.1
20260506205208 25 193 4.8 8.0 0.00 0.00 0.00 75 1013.9
20260506204706 25 211 3.2 4.8 0.00 0.00 0.00 75 1014.0
20260506204203 25 198 4.8 11.3 0.00 0.00 0.00 75 1014.0
20260506203701 25 205 4.8 8.0 0.00 0.00 0.00 75 1014.2
20260506203157 26 210 4.8 8.0 0.00 0.00 0.00 73 1014.1
20260506202655 25 208 3.2 8.0 0.00 0.00 0.00 74 1014.3
20260506202151 25 217 6.4 8.0 0.00 0.00 0.00 74 1014.3
20260506201648 25 199 0.0 3.2 0.00 0.00 0.00 74 1014.3
20260506201144 25 227 6.4 9.7 0.00 0.00 0.00 73 1014.4
20260506200641 25 179 4.8 8.0 0.00 0.00 0.00 74 1014.5
20260506200138 25 174 6.4 8.0 0.00 0.00 0.00 73 1014.2
20260506195635 25 221 6.4 9.7 0.00 0.00 0.00 74 1014.6
20260506195131 25 223 6.4 9.7 0.00 0.00 0.00 73 1014.6
20260506194629 26 193 0.0 0.0 0.00 0.00 0.00 72 1014.7
20260506194125 26 200 6.4 8.0 0.00 0.00 0.00 71 1014.4
20260506193623 26 222 4.8 8.0 0.00 0.00 0.00 70 1014.6
20260506193120 26 205 0.0 0.0 0.00 0.00 0.00 73 1014.6
20260506192617 26 210 3.2 4.8 0.00 0.00 0.00 72 1014.7
20260506192112 26 205 0.0 4.8 0.00 0.00 0.00 72 1014.9
20260506191609 27 215 4.8 8.0 0.00 0.00 0.00 69 1014.7
20260506191105 26 199 0.0 0.0 0.00 0.00 0.00 73 1015.0
20260506190603 26 212 6.4 8.0 0.00 0.00 0.00 71 1015.1
20260506190059 27 210 0.0 0.0 0.00 0.00 0.00 69 1015.2
20260506185557 26 211 3.2 3.2 0.00 0.00 0.00 72 1015.4
20260506185053 26 208 0.0 0.0 0.00 0.00 0.00 71 1015.5
20260506184551 26 190 0.0 1.6 0.00 0.00 0.00 73 1015.5
20260506184048 26 195 0.0 0.0 0.00 0.00 0.00 72 1015.7
20260506183543 26 214 4.8 4.8 0.00 0.00 0.00 70 1015.6
20260506183040 27 192 3.2 3.2 0.00 0.00 0.00 70 1015.6
20260506182538 27 212 4.8 8.0 0.00 0.00 0.00 71 1015.8
20260506182035 26 198 6.4 9.7 0.00 0.00 0.00 72 1015.7
20260506181533 26 210 3.2 3.2 0.00 0.00 0.00 75 1015.6
20260506181029 26 209 0.0 0.0 0.00 0.00 0.00 76 1015.8
20260506180526 26 210 1.6 3.2 0.00 0.00 0.00 75 1015.9
20260506180022 26 198 3.2 4.8 0.00 0.00 0.00 74 1015.7
20260506175519 25 219 3.2 4.8 0.00 0.00 0.00 76 1015.9